Regional Weather Roundup
Issued by NWS Sterling, VA

Home | Current Version | Previous Version | Text Only | Print | Product List | Glossary Off
Versions: 1 2 3 4 5 6 7 8 9 10 11 12 13 14 15 16 17 18 19 20 21 22 23 24 25 26 27 28 29 30 31 32 33 34 35 36 37 38 39 40 41 42 43 44 45 46 47 48 49 50

000
ASUS41 KLWX 211410
RWRLWX

REGIONAL WEATHER ROUNDUP
NATIONAL WEATHER SERVICE BALTIMORE MD/WASHINGTON DC
1000 AM EDT TUE OCT 21 2014

Note: "FAIR" indicates few or no clouds below 12,000 feet
with no significant weather and/or obstructions to visibility.
 TC=TEMPERATURE CELSIUS

 * =Non NWS site. Station does not report precipitation (e.g. rain,
    snow, etc.), thunder, or fog.

DCZ001-MDZ009-015-VAZ040>042-051-053>054-211500-
WASHINGTON METRO

CITY           SKY/WX    TMP DP  RH WIND       PRES   REMARKS
WASHINGTON NAT MOSUNNY   62  49  62 CALM      29.89S
DULLES         MOSUNNY   56  49  77 CALM      29.89R
ANDREWS AFB    SUNNY     60  50  68 W3        29.88S
FT BELVOIR     SUNNY     58  51  77 VRB1      29.90S
QUANTICO       MOSUNNY   59  49  69 NW3       29.90S
COLLEGE PARK*  SUNNY     57  52  82 CALM      29.88S
LEESBURG*      CLOUDY    59  54  82 CALM      29.89F
GAITHERSBURG*  PTSUNNY   57  52  82 NW7       29.91F

$$

MDZ006>007-011-014-211500-
BALTIMORE METRO

CITY           SKY/WX    TMP DP  RH WIND       PRES   REMARKS
BWI AIRPORT    MOSUNNY   59  50  72 CALM      29.88R
MD SCIENCE CTR   N/A     60  49  66 MISG      29.89R
MARTIN STATE   MOSUNNY   57  57 100 CALM      29.90R
ANNAPOLIS      MOSUNNY   59  49  69 CALM      29.89R

$$

MDZ012-015-019>023-211500-
MARYLAND EASTERN SHORE

CITY           SKY/WX    TMP DP  RH WIND       PRES   REMARKS
OCEAN CITY     CLOUDY    64  57  78 SW5       29.88F
SALISBURY      PTSUNNY   65  58  78 SW8       29.88F
BAY BRIDGE AP*   N/A     59  48  67 W3        29.89S
CAMBRIDGE*     PTSUNNY   63  52  67 W5        29.89R
EASTON*        PTSUNNY   63  55  77 CALM      29.92S

$$

MDZ017>025-211500-
SOUTHERN MARYLAND

CITY           SKY/WX    TMP DP  RH WIND       PRES   REMARKS
PATUXENT RIVER PTSUNNY   61  51  70 W7        29.89R
ST INIGOES     PTSUNNY   61  49  64 SW8       29.89S
LEONARDTOWN*   PTSUNNY   59  50  72 CALM      29.91R

$$

MDZ003>005-211500-
NORTH CENTRAL MARYLAND

CITY           SKY/WX    TMP DP  RH WIND       PRES   REMARKS
FREDERICK*     SUNNY     61  54  77 CALM      29.91S
HAGERSTOWN APT MOSUNNY   57  48  72 SW6       29.87S
WESTMINSTER*   SUNNY     55  52  88 SW3       29.88S

$$

MDZ501>502-211500-
WESTERN MARYLAND

CITY           SKY/WX    TMP DP  RH WIND       PRES   REMARKS
OAKLAND*       CLOUDY    45 N/A N/A W5        29.89S FOG
CUMBERLAND*    SUNNY     50  50 100 CALM      29.91F

$$

VAZ025>031-211500-
SHENANDOAH VALLEY

CITY           SKY/WX    TMP DP  RH WIND       PRES   REMARKS
WINCHESTER*    SUNNY     59  45  58 SW5       29.88S
FRONT ROYAL*   FAIR      54  50  87 S5        29.88S
LURAY*         FAIR      52  52 100 CALM      29.89S
NEW MARKET*    FAIR      56  49  77 CALM      29.89S
STAUNTON*      SUNNY     59  48  67 SW8       29.92F
WAYNESBORO*    FAIR      57  47  68 W5        29.90S

$$

WVZ021-048>050-054>055-211500-
EASTERN WEST VIRGINIA PANHANDLE

CITY           SKY/WX    TMP DP  RH WIND       PRES   REMARKS
MARTINSBURG    SUNNY     55  48  77 VRB3      29.89R
PETERSBURG*    RAIN     N/A N/A N/A CALM      29.90F

$$

VAZ036>039-050-211500-
CENTRAL FOOTHILLS

CITY           SKY/WX    TMP DP  RH WIND       PRES   REMARKS
CHARLOTTESVILL MOSUNNY   61  48  62 CALM      29.88S
CULPEPER*      CLOUDY    57  52  82 CALM      29.89S
ORANGE*        MOSUNNY   59  50  72 S3        29.90S
GORDONSVILLE*  PTSUNNY   60  52  73 CALM      29.88S
WARRENTON*     CLOUDY    58  55  88 CALM      29.88S

$$

VAZ055>057-211500-
NORTH AND CENTRAL PIEDMONT

CITY           SKY/WX    TMP DP  RH WIND       PRES   REMARKS
FREDERICKSBRG* MOSUNNY   62  51  68 CALM      29.87F
STAFFORD*      PTSUNNY   59  51  74 CALM      29.92F

$$

NCZ024-NYZ072-PAZ021-071-VAZ022-071-211500-
OTHER REGIONAL OBSERVATIONS

CITY           SKY/WX    TMP DP  RH WIND       PRES   REMARKS
NEW YORK CITY  MOSUNNY   61  45  55 CALM      29.92S
PHILADELPHIA   MOSUNNY   58  50  75 CALM      29.89R
PITTSBURGH     CLOUDY    52  49  89 W6        29.87S
ROANOKE        MOSUNNY   58  48  69 VRB5      29.95S
RICHMOND       PTSUNNY   63  50  62 W3        29.90S
RALEIGH        MOSUNNY   61  52  72 W3        29.94S

$$

ANZ530>537-211500-
MARINE OBSERVATIONS

STATION/POSITION TIME  TEMP    WIND        PRES
                       AIR SEA DIR/SP/G
                 (UTC) (F)     (DEG/KT/KT) (MB)
THOMAS PT LIGHT  1400   57 65  290/  2/  3 1013.1S
BALT KEY BRIDGE  1400   56     200/  3/  3 1011.7R
COVE POINT       1400   60     260/ 11/ 13 1012.0R
LEWISETTA        1400   60 62  250/  4/  5 1011.9R
SOLOMONS ISLAND  1400      66                N/A
PINEY POINT      1400          270/  4/  5   N/A

$$



USA.gov is the U.S. government's official web portal to all federal, state and local government web resources and services.